378  
ASUS43 KARX 221310  
RWRARX  
 
HOURLY WEATHER FOR THE UPPER MISSISSIPPI RIVER VALLEY  
NATIONAL WEATHER SERVICE LA CROSSE WI  
700 AM CST THU FEB 22 2024  
 
NOTE: "FAIR" INDICATES FEW OR NO CLOUDS BELOW 12,000 FEET WITH NO  
SIGNIFICANT WEATER AND/OR S TO VISIBILITY
.  
 
MNZ077-085>088-093>096-221400  
SOUTHEAST MINNESOTA  
 
CITY SKY/WX TMP DP RH WIND PRES REMARKS
 
ROCHESTER CLEAR 33 24 69 W8 29.77S WCI 26  
WINONA CLEAR 27 23 86 CALM 29.80F  
AUSTIN PTCLDY 28 25 86 CALM 29.79S  
ALBERT LEA PTCLDY 30 27 86 CALM 29.79S  
DODGE CENTER CLEAR 27 25 93 CALM 29.78S  
PRESTON CLEAR 30 25 80 CALM 29.77S  
OWATONNA CLEAR 32 27 80 CALM 29.78F  
FARIBAULT NOT AVBL  

 
 
WIZ041-042-053>056-061-221400  
SOUTHWEST WISCONSIN  
 
CITY SKY/WX TMP DP RH WIND PRES REMARKS
 
LA CROSSE CLEAR 26 22 84 SE3 29.79F  
SPARTA CLEAR 19 19 99 CALM 29.77  
WIS DELLS CLEAR 28 25 89 CALM 29.77S  
PRAIRIE DU CHI PTCLDY 30 27 86 CALM 29.79S  
BOSCOBEL PTCLDY 26 22 84 CALM 29.80R FOG  
LONE ROCK PTCLDY 28 24 85 W5 29.79R WCI 23  
PLATTEVILLE PTCLDY 36 9 32 N6 29.77R WCI 31  

 
 
WIZ017-030-034>036-043>045-221400  
CENTRAL WISCONSIN  
 
CITY SKY/WX TMP DP RH WIND PRES REMARKS
 
MEDFORD PTCLDY 26 23 89 CALM 29.75S  
WAUSAU NOT AVBL  
BLACK RVR FLS CLEAR 19 18 94 CALM 29.78S  
WIS RAPIDS PTCLDY 25 21 85 CALM 29.77F  
MARSHFIELD PTCLDY 27 24 89 NW3 29.75F  
MAUSTON CLEAR 25 22 90 CALM 29.77F  
CAMP DOUGLAS PTCLDY 23 20 88 CALM 29.75  
WAUTOMA NOT AVBL  

 
 
IAZ008>011-017>019-029-030-221400  
NORTHEAST IOWA  
 
CITY SKY/WX TMP DP RH WIND PRES REMARKS
 
WATERLOO MOCLDY 31 24 75 CALM 29.79R  
DUBUQUE MOCLDY 37 26 64 NE10 29.77R WCI 30  
DECORAH PTCLDY 30 27 86 CALM 29.77S  
MASON CITY MOCLDY 29 23 78 W3 29.80F  
CHARLES CITY PTCLDY 30 27 86 NW3 29.79S  
OELWEIN CLEAR 34 25 69 N8 29.78S WCI 27  

 
 
WIND SPEEDS ARE IN MILES PER HOUR.  
 
ABBREVIATIONS USED IN THE REMARKS:  
VSB - VISIBILITY IN STATUTE MILES  
WCI - WIND CHILL INDEX  
HX - HEAT INDEX  
 
 
CLICK HERE TO GO TO PREVIOUS BULLETINS.

The Nexlab WI Page
The Nexlab IA Page
The Nexlab MN Page Main Text Page